Location: Bottens
(46.6171°N, 6.6605°E)
Time: 13:37:15
(UTC+00:00)

Cosmos 1825 - Pass Details

Date: 01 November 2021
Orbit: 501 x 504 km, 82.5° (Epoch: 04 December)

Event Time Altitude Azimuth Distance (km) Brightness Sun altitude
Rises 18:34:20 0° 337° (NNW) 2,611 6.1 -23.8°
Reaches altitude 10° 18:36:48 10° 322° (NW) 1,721 5.4 -24.3°
Maximum altitude 18:39:43 22° 271° (W) 1,156 4.7 -24.8°
Drops below altitude 10° 18:42:37 10° 220° (SW) 1,711 5.2 -25.3°
Sets 18:45:03 0° 205° (SSW) 2,590 6.0 -25.7°
